EW1440 Weather Reports


Display with metric or nautical units.
time (UTC)temp
F
wind
direction
speed
MPH
gust
MPH
rain 1hr
in
rain 24hr
in
rain mn
in
humidity
%
barometer
mb
20260503220052 78 136 8.0 14.0 0.00 0.00 0.00 42 1018.1
20260503215535 78 133 6.0 17.0 0.00 0.00 0.00 40 1018.3
20260503215037 78 158 6.0 17.0 0.00 0.00 0.00 39 1018.4
20260503214547 78 126 6.0 17.0 0.00 0.00 0.00 45 1018.5
20260503214033 78 177 5.0 12.0 0.00 0.00 0.00 43 1018.5
20260503213533 78 135 6.0 17.0 0.00 0.00 0.00 38 1018.5
20260503213044 77 160 5.0 18.0 0.00 0.00 0.00 40 1018.7
20260503212538 77 143 7.0 18.0 0.00 0.00 0.00 36 1018.9
20260503212033 78 154 7.0 15.0 0.00 0.00 0.00 38 1018.9
20260503211547 77 143 7.0 14.0 0.00 0.00 0.00 39 1019.0
20260503211031 78 128 7.0 15.0 0.00 0.00 0.00 37 1019.1
20260503210534 78 112 5.0 16.0 0.00 0.00 0.00 40 1019.3
20260503210044 77 205 7.0 16.0 0.00 0.00 0.00 41 1019.4
20260503205534 77 128 6.0 13.0 0.00 0.00 0.00 39 1019.5
20260503205036 78 226 7.0 13.0 0.00 0.00 0.00 38 1019.5
20260503204543 78 143 8.0 15.0 0.00 0.00 0.00 44 1019.6
20260503204034 78 110 5.0 15.0 0.00 0.00 0.00 39 1020.0
20260503203535 77 126 7.0 15.0 0.00 0.00 0.00 39 1019.9
20260503203050 76 108 8.0 15.0 0.00 0.00 0.00 39 1020.1
20260503202534 78 78 7.0 15.0 0.00 0.00 0.00 38 1020.2
20260503202035 78 120 8.0 14.0 0.00 0.00 0.00 41 1020.2
20260503201549 78 152 8.0 14.0 0.00 0.00 0.00 39 1020.3
20260503201036 78 162 7.0 14.0 0.00 0.00 0.00 39 1020.4
20260503200534 78 147 5.0 14.0 0.00 0.00 0.00 39 1020.5
20260503200048 78 163 6.0 16.0 0.00 0.00 0.00 41 1020.6
20260503195536 76 143 3.0 16.0 0.00 0.00 0.00 40 1020.6
20260503195033 78 121 8.0 17.0 0.00 0.00 0.00 40 1020.9
20260503194552 78 146 8.0 17.0 0.00 0.00 0.00 43 1020.9
20260503194034 78 155 7.0 16.0 0.00 0.00 0.00 39 1021.0
20260503193536 78 88 10.0 16.0 0.00 0.00 0.00 44 1021.1
20260503193046 77 197 8.0 16.0 0.00 0.00 0.00 40 1021.1
20260503192534 78 128 8.0 16.0 0.00 0.00 0.00 43 1021.1
20260503192033 77 105 7.0 14.0 0.00 0.00 0.00 44 1021.1
20260503191543 76 151 6.0 11.0 0.00 0.00 0.00 42 1021.0
20260503191035 77 147 3.0 13.0 0.00 0.00 0.00 43 1021.0
20260503190535 76 110 5.0 14.0 0.00 0.00 0.00 42 1021.3
20260503190042 77 110 7.0 14.0 0.00 0.00 0.00 44 1021.5
20260503185533 77 155 9.0 14.0 0.00 0.00 0.00 45 1021.6
20260503185034 76 126 7.0 16.0 0.00 0.00 0.00 43 1021.7
20260503184605 76 184 5.0 16.0 0.00 0.00 0.00 43 1021.8
20260503184034 76 114 9.0 16.0 0.00 0.00 0.00 48 1021.9
20260503183534 76 97 8.0 14.0 0.00 0.00 0.00 44 1021.9
20260503183051 76 93 7.0 14.0 0.00 0.00 0.00 46 1022.0
20260503182533 75 130 5.0 14.0 0.00 0.00 0.00 45 1022.1
20260503182034 75 107 5.0 13.0 0.00 0.00 0.00 49 1022.1
20260503181554 75 72 5.0 12.0 0.00 0.00 0.00 48 1022.2
20260503181035 75 174 5.0 12.0 0.00 0.00 0.00 49 1022.2
20260503180535 76 143 4.0 11.0 0.00 0.00 0.00 52 1022.4
20260503180047 75 141 6.0 15.0 0.00 0.00 0.00 50 1022.4
20260503175534 75 196 7.0 15.0 0.00 0.00 0.00 48 1022.6
20260503175037 75 124 6.0 13.0 0.00 0.00 0.00 54 1022.7
20260503174548 74 111 3.0 12.0 0.00 0.00 0.00 50 1022.8
20260503174034 75 153 5.0 12.0 0.00 0.00 0.00 51 1022.9
20260503173536 75 96 7.0 14.0 0.00 0.00 0.00 51 1022.9
20260503173048 75 110 5.0 14.0 0.00 0.00 0.00 48 1023.1
20260503172535 75 156 5.0 14.0 0.00 0.00 0.00 53 1023.1
20260503172037 74 101 6.0 14.0 0.00 0.00 0.00 51 1023.1
20260503171609 74 119 3.0 14.0 0.00 0.00 0.00 46 1023.4
20260503171035 74 133 8.0 14.0 0.00 0.00 0.00 51 1023.5
20260503170537 73 132 2.0 13.0 0.00 0.00 0.00 52 1023.5
20260503150533 68 234 4.0 9.0 0.00 0.00 0.00 62 1024.0
20260503131035 51 0 0.0 2.0 0.00 0.00 0.00 93 1023.1
20260503130534 51 0 0.0 3.0 0.00 0.00 0.00 92 1023.1
20260503110535 50 241 1.0 2.0 0.00 0.00 0.00 90 1022.0
20260503081550 51 253 0.0 1.0 0.00 0.00 0.00 87 1021.8
20260503081034 51 0 0.0 1.0 0.00 0.00 0.00 88 1021.8
20260503080537 51 0 0.0 1.0 0.00 0.00 0.00 88 1021.9
20260503072533 52 0 0.0 2.0 0.00 0.00 0.00 87 1022.3
20260503072035 52 253 0.0 2.0 0.00 0.00 0.00 87 1022.3
20260503071604 52 0 0.0 2.0 0.00 0.00 0.00 87 1022.4
20260503071033 52 253 0.0 2.0 0.00 0.00 0.00 87 1022.4
20260503070533 52 0 0.0 2.0 0.00 0.00 0.00 87 1022.5
20260503055033 54 0 0.0 4.0 0.00 0.00 0.00 84 1022.7
20260503054557 54 0 1.0 4.0 0.00 0.00 0.00 84 1022.9
20260503054033 54 0 0.0 2.0 0.00 0.00 0.00 84 1022.8
20260503053533 54 118 0.0 2.0 0.00 0.00 0.00 83 1022.8
20260503053049 54 118 0.0 2.0 0.00 0.00 0.00 83 1022.7
20260503052533 54 118 0.0 2.0 0.00 0.00 0.00 83 1022.7
20260503052034 55 118 0.0 2.0 0.00 0.00 0.00 83 1022.7
20260503051545 55 0 0.0 0.0 0.00 0.00 0.00 82 1022.7
20260503051032 55 0 0.0 0.0 0.00 0.00 0.00 82 1022.7
20260503050534 55 0 0.0 0.0 0.00 0.00 0.00 82 1022.6
20260503050050 55 0 0.0 0.0 0.00 0.00 0.00 82 1022.5
20260503045534 56 0 0.0 0.0 0.00 0.00 0.00 81 1022.5
20260503045035 56 0 0.0 0.0 0.00 0.00 0.00 81 1022.4
20260503044553 56 0 0.0 0.0 0.00 0.00 0.00 81 1022.5
20260503044033 56 0 0.0 0.0 0.00 0.00 0.00 81 1022.6
20260503043533 57 0 0.0 0.0 0.00 0.00 0.00 80 1022.5
20260503043048 57 0 0.0 0.0 0.00 0.00 0.00 80 1022.5
20260503042533 57 0 0.0 0.0 0.00 0.00 0.00 80 1022.5
20260503042034 58 0 0.0 0.0 0.00 0.00 0.00 79 1022.5
20260503041546 58 0 0.0 0.0 0.00 0.00 0.00 78 1022.5
20260503041034 58 0 0.0 0.0 0.00 0.00 0.00 78 1022.5
20260503040535 59 0 0.0 0.0 0.00 0.00 0.00 77 1022.6
20260503040043 59 0 0.0 1.0 0.00 0.00 0.00 76 1022.6
20260503035533 60 0 0.0 1.0 0.00 0.00 0.00 76 1022.5
20260503035035 60 0 0.0 1.0 0.00 0.00 0.00 75 1022.3
20260503034549 60 0 0.0 1.0 0.00 0.00 0.00 74 1022.3
20260503034034 61 0 0.0 0.0 0.00 0.00 0.00 73 1022.2
20260503033534 61 0 0.0 0.0 0.00 0.00 0.00 71 1022.1
20260503033048 61 0 0.0 1.0 0.00 0.00 0.00 70 1022.2
20260503032534 61 0 0.0 2.0 0.00 0.00 0.00 68 1022.1
20260503032035 61 0 0.0 2.0 0.00 0.00 0.00 66 1022.0
20260503031547 61 118 1.0 4.0 0.00 0.00 0.00 66 1021.9
20260503031034 61 0 1.0 6.0 0.00 0.00 0.00 65 1021.9
20260503030536 61 124 2.0 6.0 0.00 0.00 0.00 65 1021.9
20260503030046 61 158 2.0 6.0 0.00 0.00 0.00 66 1021.7
20260503025533 61 115 3.0 6.0 0.00 0.00 0.00 66 1021.7
20260503025034 61 147 3.0 6.0 0.00 0.00 0.00 66 1021.7
20260503024544 61 159 2.0 6.0 0.00 0.00 0.00 67 1021.6
20260503024034 61 160 3.0 7.0 0.00 0.00 0.00 68 1021.5
20260503023534 60 166 4.0 7.0 0.00 0.00 0.00 69 1021.5
20260503023050 60 147 4.0 7.0 0.00 0.00 0.00 70 1021.4
20260503022534 60 174 4.0 6.0 0.00 0.00 0.00 71 1021.3
20260503022037 61 174 3.0 5.0 0.00 0.00 0.00 72 1021.4
20260503021555 61 175 3.0 6.0 0.00 0.00 0.00 73 1021.3
20260503021034 61 175 3.0 6.0 0.00 0.00 0.00 72 1021.2
20260503020533 62 187 1.0 5.0 0.00 0.00 0.00 72 1021.1
20260503020053 62 164 1.0 5.0 0.00 0.00 0.00 71 1021.0
20260503015533 63 161 2.0 5.0 0.00 0.00 0.00 71 1020.8
20260503015036 64 193 1.0 4.0 0.00 0.00 0.00 71 1020.8
20260503014549 64 123 0.0 0.0 0.00 0.00 0.00 70 1020.6
20260503014034 65 0 0.0 0.0 0.00 0.00 0.00 69 1020.6
20260503013533 66 0 0.0 2.0 0.00 0.00 0.00 68 1020.5
20260503013045 66 0 0.0 2.0 0.00 0.00 0.00 66 1020.5
20260503012533 67 123 0.0 1.0 0.00 0.00 0.00 65 1020.4
20260503012034 68 0 0.0 1.0 0.00 0.00 0.00 64 1020.4
20260503011550 68 0 0.0 2.0 0.00 0.00 0.00 63 1020.3
20260503011033 69 0 0.0 3.0 0.00 0.00 0.00 60 1020.2
20260503010533 70 70 1.0 4.0 0.00 0.00 0.00 59 1020.1
20260503010055 70 74 1.0 4.0 0.00 0.00 0.00 55 1020.2
20260503005536 70 49 2.0 6.0 0.00 0.00 0.00 53 1020.2
20260503005034 71 34 2.0 6.0 0.00 0.00 0.00 50 1020.1
20260503004548 71 75 3.0 6.0 0.00 0.00 0.00 50 1020.0
20260503004035 71 70 3.0 7.0 0.00 0.00 0.00 49 1020.0
20260503003535 71 53 1.0 7.0 0.00 0.00 0.00 48 1020.0
20260503003047 71 91 2.0 7.0 0.00 0.00 0.00 48 1019.9
20260503002535 71 95 3.0 7.0 0.00 0.00 0.00 48 1019.9
20260503002034 71 77 4.0 10.0 0.00 0.00 0.00 47 1019.9
20260503001548 71 115 4.0 10.0 0.00 0.00 0.00 48 1019.8
20260503001036 72 58 5.0 10.0 0.00 0.00 0.00 46 1019.8
20260503000535 72 82 7.0 10.0 0.00 0.00 0.00 45 1019.8
20260502235533 72 76 5.0 11.0 0.00 0.00 0.00 46 1019.9
20260502235033 72 91 3.0 11.0 0.00 0.00 0.00 46 1019.9
20260502234558 73 103 6.0 11.0 0.00 0.00 0.00 45 1019.9
20260502234033 73 103 5.0 11.0 0.00 0.00 0.00 43 1019.9
20260502233533 73 114 5.0 11.0 0.00 0.00 0.00 44 1019.9
20260502233047 73 97 7.0 12.0 0.00 0.00 0.00 42 1019.9
20260502232532 73 70 5.0 12.0 0.00 0.00 0.00 43 1019.9
20260502232035 73 75 6.0 11.0 0.00 0.00 0.00 43 1019.9
20260502231546 74 27 6.0 14.0 0.00 0.00 0.00 42 1019.9
20260502231034 74 87 7.0 14.0 0.00 0.00 0.00 41 1019.9
20260502230534 74 95 7.0 14.0 0.00 0.00 0.00 42 1019.9
20260502230049 74 100 6.0 12.0 0.00 0.00 0.00 41 1019.8
20260502225533 74 91 6.0 13.0 0.00 0.00 0.00 42 1019.9
20260502225033 74 18 7.0 13.0 0.00 0.00 0.00 40 1020.0
20260502224549 74 60 9.0 13.0 0.00 0.00 0.00 40 1020.0
20260502224034 74 64 4.0 13.0 0.00 0.00 0.00 43 1019.9
20260502223533 75 68 8.0 13.0 0.00 0.00 0.00 42 1020.0
20260502223048 75 50 8.0 14.0 0.00 0.00 0.00 43 1019.9
20260502222535 75 46 6.0 14.0 0.00 0.00 0.00 44 1019.9
20260502222034 75 111 9.0 14.0 0.00 0.00 0.00 43 1019.9
20260502221544 76 79 6.0 11.0 0.00 0.00 0.00 43 1019.9
20260502221033 75 66 5.0 11.0 0.00 0.00 0.00 45 1019.9
20260502220531 75 66 4.0 11.0 0.00 0.00 0.00 42 1019.9